Westfield, IN

12:54 AM EDT on September 25, 2016 (GMT -0400)
Indianapolis Terry

Weather History for KTYQ - January, 2013

Change the Weather History Date:

Sunday, January 20, 2013

  Actual Average (KEYE) Record (KEYE)
Temperature  
Mean Temperature 31 °F 28 °F  
Max Temperature 42 °F 35 °F 57 °F (2006)
Min Temperature 20 °F 21 °F 0 °F (2008)
Degree Days  
Heating Degree Days 34 37  
Month to date heating degree days 740  
Since 1 July heating degree days 2796  
Cooling Degree Days 0 0  
Month to date cooling degree days 0  
Year to date cooling degree days 0  
Moisture  
Dew Point 13 °F    
Average Humidity 58    
Maximum Humidity 68    
Minimum Humidity 50    
Precipitation  
Precipitation 0.00 in 0.04 in 0.15 in (2011)
Month to date precipitation 1.81  
Year to date precipitation 1.81  
Sea Level Pressure  
Sea Level Pressure 30.16 in    
Wind  
Wind Speed 14 mph (WNW)    
Max Wind Speed 23 mph    
Max Gust Speed 33 mph    
Visibility 10 miles    
Events      
T = Trace of Precipitation, MM = Missing Value Source: NWS Daily Summary

Daily Weather History Graph

Daily Weather History Graph

Search for Another Location

Airport or City:

Trip Planner

Search our weather history database for the weather conditions in past years. The results will help you decide how hot, cold, wet, or windy it might be!

Date:

Astronomy

Jan. 20, 2013 Rise Set
Actual Time 8:02 AM EST 5:50 PM EST
Civil Twilight 7:33 AM EST 6:19 PM EST
Nautical Twilight 7:00 AM EST 6:52 PM EST
Astronomical Twilight 6:27 AM EST 7:24 PM EST
Moon 12:51 PM EST (1/20) 2:34 AM EST (1/20)
Length of Visible Light 10h 46m
Length of Day
9h 47m
Waxing Gibbous, 66% of the Moon is Illuminated
Jan 20
Waxing Gibbous
Jan 26
Full
Feb 3
Last Quarter
Feb 10
New
Feb 17
First Quarter

Hourly Weather History & Observations

Time (EST) Temp. Windchill Dew Point Humidity Pressure Visibility Wind Dir Wind Speed Gust Speed Precip Events Conditions
12:15 AM 42.3 °F 34.8 °F 32.0 °F 67% 29.91 in 10.0 mi West 15.0 mph 18.4 mph N/A   Clear
12:35 AM 41.9 °F 34.3 °F 32.0 °F 68% 29.91 in 10.0 mi West 15.0 mph 19.6 mph N/A   Clear
12:55 AM 42.1 °F 33.6 °F 31.5 °F 66% 29.92 in 10.0 mi West 18.4 mph 23.0 mph N/A   Clear
1:15 AM 41.0 °F 33.1 °F 31.1 °F 68% 29.93 in 10.0 mi West 15.0 mph 21.9 mph N/A   Clear
1:35 AM 40.3 °F 31.3 °F 29.7 °F 66% 29.95 in 10.0 mi WNW 18.4 mph 32.2 mph N/A   Clear
1:55 AM 39.2 °F 29.8 °F 28.4 °F 65% 29.96 in 10.0 mi West 18.4 mph 24.2 mph N/A   Scattered Clouds
2:15 AM 38.1 °F 29.1 °F 27.7 °F 66% 29.97 in 10.0 mi West 16.1 mph 29.9 mph N/A   Clear
2:35 AM 36.9 °F 25.9 °F 21.6 °F 54% 29.99 in 10.0 mi WNW 21.9 mph 33.4 mph N/A   Clear
2:55 AM 35.6 °F 24.8 °F 20.3 °F 54% 30.00 in 10.0 mi West 19.6 mph 31.1 mph N/A   Clear
3:15 AM 34.0 °F 23.4 °F 20.7 °F 58% 30.02 in 10.0 mi WNW 17.3 mph 31.1 mph N/A   Clear
3:35 AM 32.4 °F 22.1 °F 19.0 °F 58% 30.04 in 10.0 mi WNW 15.0 mph 29.9 mph N/A   Clear
3:55 AM 32.0 °F 20.5 °F 15.4 °F 51% 30.05 in 10.0 mi WNW 18.4 mph 31.1 mph N/A   Clear
4:15 AM 30.6 °F 19.4 °F 15.3 °F 53% 30.06 in 10.0 mi WNW 16.1 mph 26.5 mph N/A   Clear
4:35 AM 29.3 °F 17.7 °F 14.5 °F 54% 30.07 in 10.0 mi WNW 16.1 mph 26.5 mph N/A   Clear
4:55 AM 28.6 °F 17.2 °F 13.1 °F 52% 30.08 in 10.0 mi WNW 15.0 mph 25.3 mph N/A   Clear
5:15 AM 27.7 °F 17.1 °F 14.0 °F 57% 30.09 in 10.0 mi WNW 12.7 mph 26.5 mph N/A   Clear
5:35 AM 26.6 °F 12.0 °F 11.1 °F 52% 30.10 in 10.0 mi WNW 23.0 mph 31.1 mph N/A   Clear
5:55 AM 25.7 °F 12.3 °F 9.5 °F 50% 30.11 in 10.0 mi WNW 18.4 mph 25.3 mph N/A   Clear
6:15 AM 25.5 °F 12.9 °F 11.5 °F 55% 30.11 in 10.0 mi WNW 16.1 mph 23.0 mph N/A   Clear
6:35 AM 25.2 °F 12.4 °F 12.0 °F 58% 30.13 in 10.0 mi WNW 16.1 mph 24.2 mph N/A   Clear
6:55 AM 24.4 °F 11.9 °F 11.8 °F 59% 30.14 in 10.0 mi WNW 15.0 mph 26.5 mph N/A   Clear
7:15 AM 23.2 °F 10.8 °F 10.6 °F 59% 30.16 in 10.0 mi WNW 13.8 mph 23.0 mph N/A   Clear
7:35 AM 23.0 °F 10.1 °F 11.5 °F 61% 30.17 in 10.0 mi WNW 15.0 mph 24.2 mph N/A   Clear
7:55 AM 21.9 °F 9.2 °F 10.9 °F 63% 30.18 in 10.0 mi WNW 13.8 mph 25.3 mph N/A   Clear
8:15 AM 20.8 °F 6.8 °F 10.2 °F 64% 30.18 in 10.0 mi WNW 16.1 mph 21.9 mph N/A   Clear
8:35 AM 21.0 °F 9.3 °F 10.4 °F 64% 30.20 in 10.0 mi WNW 11.5 mph 18.4 mph N/A   Clear
8:55 AM 21.0 °F 7.6 °F 10.0 °F 63% 30.21 in 10.0 mi WNW 15.0 mph 19.6 mph N/A   Clear
9:15 AM 21.4 °F 8.5 °F 10.4 °F 63% 30.23 in 10.0 mi NW 13.8 mph 21.9 mph N/A   Clear
9:35 AM 21.2 °F 9.5 °F 10.0 °F 62% 30.23 in 10.0 mi WNW 11.5 mph 21.9 mph N/A   Clear
9:55 AM 21.9 °F 9.2 °F 10.6 °F 62% 30.24 in 10.0 mi WNW 13.8 mph 19.6 mph N/A   Clear
10:15 AM 22.1 °F 8.9 °F 9.9 °F 59% 30.26 in 10.0 mi WNW 15.0 mph 20.7 mph N/A   Clear
10:35 AM 22.3 °F 11.5 °F 10.9 °F 62% 30.26 in 10.0 mi WNW 10.4 mph 17.3 mph N/A   Clear
10:55 AM 21.9 °F 11.7 °F 10.6 °F 62% 30.27 in 10.0 mi NW 9.2 mph - N/A   Clear
11:15 AM 22.6 °F 11.3 °F 10.8 °F 60% 30.26 in 10.0 mi NW 11.5 mph - N/A   Clear
11:35 AM 21.7 °F 11.5 °F 8.2 °F 56% 30.27 in 10.0 mi NW 9.2 mph - N/A   Clear
11:55 AM 22.6 °F 15.3 °F 9.1 °F 56% 30.26 in 10.0 mi WNW 5.8 mph - N/A   Clear
12:15 PM 23.4 °F 14.3 °F 9.1 °F 55% 30.26 in 10.0 mi NW 8.1 mph - N/A   Clear
12:35 PM 23.7 °F 14.0 °F 9.3 °F 54% 30.24 in 10.0 mi NNW 9.2 mph - N/A   Clear
1:15 PM 24.6 °F 15.1 °F 10.9 °F 56% 30.23 in 10.0 mi NW 9.2 mph 16.1 mph N/A   Clear
1:35 PM 24.4 °F 15.6 °F 10.9 °F 57% 30.22 in 10.0 mi West 8.1 mph - N/A   Clear
1:55 PM 24.8 °F 16.1 °F 9.3 °F 52% 30.21 in 10.0 mi WNW 8.1 mph - N/A   Clear
2:15 PM 25.9 °F 18.2 °F 10.0 °F 51% 30.21 in 10.0 mi West 6.9 mph - N/A   Clear
2:35 PM 25.7 °F 17.1 °F 9.9 °F 51% 30.22 in 10.0 mi WNW 8.1 mph - N/A   Scattered Clouds
2:55 PM 26.1 °F 18.4 °F 10.4 °F 52% 30.21 in 10.0 mi WNW 6.9 mph 10.4 mph N/A   Scattered Clouds
3:15 PM 25.9 °F 17.4 °F 10.6 °F 52% 30.22 in 10.0 mi West 8.1 mph 16.1 mph N/A   Mostly Cloudy
3:35 PM 25.7 °F 17.1 °F 10.9 °F 54% 30.22 in 10.0 mi WNW 8.1 mph 18.4 mph N/A   Overcast
3:55 PM 25.7 °F 14.6 °F 10.8 °F 53% 30.22 in 10.0 mi NW 12.7 mph - N/A   Overcast
4:15 PM 25.5 °F 16.9 °F 10.4 °F 53% 30.23 in 10.0 mi NW 8.1 mph - N/A   Overcast
4:35 PM 24.8 °F 14.6 °F 9.9 °F 53% 30.23 in 10.0 mi WNW 10.4 mph - N/A   Overcast
4:55 PM 24.8 °F 16.9 °F 9.7 °F 53% 30.23 in 10.0 mi WNW 6.9 mph - N/A   Overcast
5:15 PM 24.4 °F 15.6 °F 9.7 °F 53% 30.23 in 10.0 mi WNW 8.1 mph - N/A   Overcast
5:35 PM 24.3 °F 16.3 °F 11.1 °F 57% 30.23 in 10.0 mi West 6.9 mph - N/A   Overcast
5:55 PM 23.9 °F 14.2 °F 11.5 °F 59% 30.23 in 10.0 mi West 9.2 mph - N/A   Overcast
6:15 PM 23.9 °F 14.2 °F 10.4 °F 56% 30.24 in 10.0 mi West 9.2 mph - N/A   Overcast
6:35 PM 23.9 °F 14.2 °F 10.6 °F 57% 30.24 in 10.0 mi West 9.2 mph - N/A   Overcast
6:55 PM 23.5 °F 14.5 °F 10.9 °F 59% 30.24 in 10.0 mi West 8.1 mph - N/A   Overcast
7:15 PM 23.0 °F 12.4 °F 10.8 °F 60% 30.23 in 10.0 mi West 10.4 mph 16.1 mph N/A   Mostly Cloudy
7:35 PM 23.0 °F 13.9 °F 11.3 °F 61% 30.23 in 10.0 mi WNW 8.1 mph - N/A   Scattered Clouds
7:55 PM 23.2 °F 15.0 °F 11.1 °F 60% 30.23 in 10.0 mi WNW 6.9 mph - N/A   Clear
8:15 PM 23.0 °F 13.1 °F 10.8 °F 60% 30.22 in 10.0 mi West 9.2 mph - N/A   Clear
8:35 PM 22.8 °F 15.5 °F 11.3 °F 61% 30.22 in 10.0 mi WNW 5.8 mph - N/A   Scattered Clouds
8:55 PM 23.0 °F 14.7 °F 11.5 °F 61% 30.22 in 10.0 mi WNW 6.9 mph - N/A   Overcast
9:15 PM 22.6 °F 13.4 °F 10.8 °F 60% 30.21 in 10.0 mi WNW 8.1 mph - N/A   Scattered Clouds
9:35 PM 22.5 °F 13.2 °F 10.8 °F 61% 30.21 in 10.0 mi WNW 8.1 mph - N/A   Scattered Clouds
9:55 PM 22.6 °F 16.5 °F 11.3 °F 62% 30.21 in 10.0 mi WNW 4.6 mph - N/A   Mostly Cloudy
10:15 PM 22.6 °F 12.6 °F 11.5 °F 62% 30.21 in 10.0 mi WNW 9.2 mph - N/A   Overcast
10:35 PM 22.5 °F 11.7 °F 10.6 °F 60% 30.21 in 10.0 mi WNW 10.4 mph - N/A   Overcast
10:55 PM 22.1 °F 12.8 °F 10.9 °F 62% 30.20 in 10.0 mi WNW 8.1 mph - N/A   Overcast
11:15 PM 21.9 °F 11.0 °F 10.4 °F 61% 30.20 in 10.0 mi WNW 10.4 mph - N/A   Overcast
11:35 PM 21.9 °F 11.7 °F 9.9 °F 60% 30.20 in 10.0 mi WNW 9.2 mph - N/A   Overcast
11:55 PM 21.9 °F 12.5 °F 9.9 °F 60% 30.20 in 10.0 mi WNW 8.1 mph 17.3 mph N/A   Overcast